Find Starlink 11233

NORAD ID: 61061 Int'l Des: 2024-164 Owner: SPXS Country: US Constellation: starlink operational
LEOCIRCULAR

Current View

Loading 3D Globe...

About Starlink 11233

Starlink 11233 (NORAD 61061) is a starlink constellation satellite (v2 mini d2c) launched Sep 13, 2024 by SPXS of US. It operates in LEO, CIRCULAR orbit with a mass of 960.00 kg.

About Starlink 11233

Description loading...

Upcoming Passes

Passes for default location (London). Set your location on the main map for personalized predictions.

Altitude History

Loading altitude history...

Two-Line Element Set

1 61061U 24164M 26171.23890306 .00000860 00000-0 11957-4 0 9990
2 61061 53.1602 165.8658 0001143 89.1852 270.9297 15.69713615101523
Epoch: Jun 20, 2026 • Age: 35 hours

Current Status

Altitude 359.7 km
Velocity 7.70 km/s
Sub-Earth Point 14.48°N, 5.48°E
Launch Date Sep 13, 2024
Age 1.7 years
Type internet

Technical Details

Classification Payload
Mass 960.00 kg
Dry Mass 910.00 kg
Total Mass 960.00 kg
Length 0.30 m
Diameter 4.10 m
Span 29.00 m
Shape Box + pan
Manufacturer SPXS
Bus Type Starlink V2MD
Phase Status In Orbit
Owner/State SPXS/US

Most Searched